SCP
-0 -0 -0 -0 -0 -0 -0 0 0 0 -0 -0 0 0 0 0 0 -0 -0 0 0 0 -0 -0 0 -0 0 0 -0 0 0 0 0 -0 0 0 0 0 -0 -0 -0 -0 0 -0 -0
-0 -0 -0 -0 -0 -0 -0 0 0 0 0 0 0 0 0 0 0 -0 0 0 0 0 -0 -0 -0 -0 0 -0 0 -0 0 0 -0 0 0 -0 -0 -0 0 -0 -0 -0 -0 -0 -0
-0 -0 -0 -0 -0 -0 -0 -0 0 0 -0 0 0 0 0 -0 0 0 0 0 0 -0 0 -0 -0 -0 0 0 -0 0 0 0 -0 0 0 0 -0 -0 -0 -0 -0 -0 -0 -0 -0
-0 -0 -0 -0 -0 -0 -0 -0 -0 -0 -0 -0 0 -0 -0 -0 0 0 0 0 0 -0 0 -0 0 -0 -0 0 0 0 0 0 -0 0 0 -0 0 -0 -0 0 -0 -0 -0 -0 -0
-0 -0 -0 -0 -0 -0 -0 -0 -0 -0 -0 -0 -0 -0 -0 0 0 0 0 0 0 -0 0 0 0 -0 -0 0 0 0 0 0 -0 0 0 0 0 0 -0 -0 -0 -0 -0 -0 -0
-0 -0 -0 -0 -0 -0 -0 0 0 0 -0 -0 0 0 0 0 0 0 0 0 0 -0 0 -0 -0 -0 0 0 0 0 0 0 0 0 0 0 -0 0 -0 -0 -0 -0 -0 -0 -0
0 0 0 0 0 0 0 0 0 0 -0 -0 0 -0 0 0 0 0 0 0 0 -0 -0 -0 -0 0 0 0 0 0 0 0 0 0 0 0 -0 0 -0 -0 -0 -0 -0 -0 -0
0 0 0 0 0 0 0 -0 -0 0 0 -0 -0 -0 0 0 0 0 0 0 0 -0 -0 0 0 0 0 0 0 0 0 0 0 0 -0 0 -0 0 -0 -0 -0 -0 -0 -0 -0
0 0 0 0 0 0 0 -0 -0 -0 -0 -0 -0 -0 0 0 -0 0 0 0 0 0 0 0 0 0 0 0 0 0 0 -0 0 0 0 0 0 1 0 -0 -0 -0 -0 -0 0
0 0 0 0 0 0 0 -0 0 -0 -0 -0 -0 -0 0 0 0 0 0 0 0 0 0 0 0 0 0 0 0 0 0 0 0 0 0 0 0 0 0 -0 -0 -0 -0 -0 -0
0 0 0 0 0 0 0 0 0 -0 -0 0 0 0 0 0 -0 -0 0 0 0 0 0 0 0 0 0 0 0 0 0 0 0 0 0 0 0 0 0 0 0 -0 -0 -0 -0
0 0 0 0 0 -0 -0 0 0 0 0 0 0 0 0 -0 -0 0 -0 0 0 0 0 0 0 0 0 0 0 0 0 0 0 0 0 0 0 0 0 0 0 -0 -0 0 -0
0 0 0 0 -0 -0 0 0 0 0 0 0 0 0 0 -0 0 0 -0 0 0 0 0 0 0 0 0 0 0 0 0 0 0 0 0 0 0 0 2 0 0 0 0 -0 -0
0 0 0 0 -0 0 0 0 -0 -0 0 0 0 0 0 -0 0 0 0 0 0 0 0 0 0 0 0 0 0 0 0 0 0 0 0 0 0 0 1 -0 0 0 0 0 -0
0 0 0 -0 0 0 0 0 -0 -0 0 0 0 0 0 -0 0 0 0 0 0 0 0 0 0 0 0 0 0 0 0 0 0 0 0 0 0 0 0 0 0 0 0 -0 -0
0 -0 -0 0 -0 0 0 0 -0 -0 0 0 0 0 0 0 0 0 0 0 0 0 0 0 0 0 0 0 0 0 0 0 0 0 0 0 0 0 0 0 0 0 0 0 -0
-0 -0 -0 -0 0 -0 -0 -0 0 0 0 0 0 0 0 0 0 0 0 0 0 0 0 0 0 0 0 0 0 0 0 0 0 0 0 0 0 0 0 0 0 0 0 0 0
-0 0 0 -0 0 -0 -0 -0 0 0 0 0 0 0 0 0 0 0 0 0 0 0 0 0 0 0 0 0 0 0 0 0 0 0 0 0 0 0 0 0 0 0 0 0 0
-0 0 0 0 0 -0 -0 -0 0 0 0 0 0 0 0 0 0 0 0 0 0 0 0 0 0 0 0 0 0 0 0 0 0 0 0 0 0 0 0 0 0 0 0 0 0
0 0 0 0 -0 -0 0 0 0 0 0 0 0 0 0 0 0 0 0 0 0 0 0 0 0 0 0 0 0 0 0 0 0 0 0 0 0 0 0 0 0 0 0 0 0
0 0 -0 -0 -0 0 0 0 0 0 0 0 0 0 0 0 0 0 0 0 0 0 0 0 0 0 0 0 0 0 0 0 0 0 0 0 0 0 0 0 0 0 0 0 0
0 0 -0 -0 -0 0 0 0 0 0 0 0 0 0 0 0 0 0 0 0 0 0 0 0 0 0 0 -0 0 0 0 0 0 0 0 0 0 0 0 0 0 0 0 0 0
0 0 0 -0 0 0 0 0 0 0 0 0 0 0 0 0 0 0 0 0 0 0 0 0 0 0 0 0 0 0 0 0 0 0 0 0 0 0 0 0 0 0 0 0 0
0 0 0 0 0 0 0 0 0 0 0 0 0 -0 -0 -0 0 -0 0 0 0 0 0 0 0 0 0 0 0 0 0 0 0 0 0 0 0 0 0 0 0 0 0 0 0
0 -0 0 -0 0 0 0 0 0 0 0 -0 -0 -0 0 -0 0 0 0 0 0 0 0 0 0 0 0 0 0 0 0 0 0 0 0 0 0 0 0 0 0 0 0 0 0
-0 0 -0 0 -0 0 -0 0 0 0 -0 0 0 0 0 0 0 0 0 0 0 0 0 0 0 0 0 0 0 0 0 0 0 0 0 0 0 0 0 0 0 0 0 0 0
0 -0 -0 -0 -0 -0 0 0 0 0 0 0 0 0 0 0 0 0 -0 -0 -0 0 0 0 0 0 0 0 0 0 0 0 0 0 0 0 0 0 0 0 0 0 0 0 0
Wind_Speed_500mb
40 41 40 40 39 37 35 32 28 25 21 23 28 28 30 29 22 20 18 20 34 22 38 28 36 38 35 35 31 21 19 14 10 16 16 27 10 6 21 24 11 13 20 53 72
43 44 43 42 41 40 37 35 31 27 23 20 28 31 28 28 19 27 27 30 30 31 40 46 48 43 42 41 35 33 23 1 13 26 25 32 31 22 18 23 18 18 33 65 76
44 46 45 44 44 42 39 36 31 26 23 22 25 26 21 21 13 12 30 34 31 41 38 41 38 41 42 34 42 37 29 21 55 19 15 11 37 40 19 27 35 38 60 70 77
44 47 48 45 45 44 42 36 30 27 26 23 23 17 18 7 3 4 10 17 31 47 39 44 43 45 38 35 38 35 28 32 29 5 10 16 12 24 23 13 32 48 58 75 76
45 47 48 47 45 44 40 35 32 30 29 22 15 14 11 12 8 10 11 18 34 52 47 51 47 45 35 34 33 37 35 23 26 10 11 12 35 1 31 24 36 52 59 71 70
46 48 49 49 45 43 36 34 30 27 23 19 10 11 6 22 4 11 5 18 34 53 48 50 41 42 29 35 30 23 40 31 23 22 17 22 26 15 34 26 39 52 62 68 68
48 48 49 50 45 40 32 31 29 22 13 8 13 11 10 9 7 6 4 14 29 47 46 45 35 38 23 30 30 38 21 33 36 26 17 24 25 31 37 33 43 48 57 65 64
48 48 48 47 41 35 33 31 22 11 14 7 5 5 4 6 3 3 11 18 25 36 37 37 35 32 40 16 11 32 37 33 40 40 38 32 36 33 42 40 44 48 56 62 63
49 47 45 43 32 32 34 30 16 4 7 11 14 5 11 7 1 6 11 17 28 30 32 31 33 35 41 27 25 29 32 43 37 45 36 35 19 24 44 39 43 49 55 61 62
50 47 42 36 27 27 27 21 13 9 10 8 4 13 6 7 2 9 9 17 32 26 31 30 27 32 35 29 30 36 38 37 40 37 42 37 19 41 76 43 45 48 53 60 65
48 43 38 28 21 26 28 19 6 5 16 8 10 7 6 5 8 7 14 26 33 29 30 42 30 39 46 41 42 30 34 41 37 32 34 44 32 34 37 44 46 49 52 58 66
47 42 33 23 12 19 24 12 9 9 10 6 1 3 2 1 10 6 20 25 27 32 36 28 42 41 38 35 38 40 28 32 39 35 32 39 34 41 34 38 47 48 50 54 61
45 40 30 18 7 12 8 14 13 8 16 20 9 2 2 7 3 9 18 26 22 36 41 43 21 40 41 37 33 36 37 30 32 30 36 33 41 38 16 35 44 45 49 53 62
44 38 28 8 2 7 3 21 14 10 12 25 21 10 10 8 13 2 8 20 21 34 40 41 42 16 44 40 35 36 35 36 32 34 32 39 32 44 54 54 38 41 55 56 60
41 37 21 4 5 6 13 21 4 9 11 5 13 5 6 21 5 17 7 16 29 26 27 41 41 43 33 40 37 36 32 35 35 31 32 38 35 33 48 40 43 45 53 61 62
39 29 8 12 6 8 17 16 3 15 3 14 5 1 17 11 9 2 12 13 12 23 31 36 42 40 51 33 30 35 34 32 31 31 34 46 40 39 33 44 43 53 59 60 64
40 15 9 6 9 22 17 9 13 15 8 13 6 6 9 3 13 11 15 23 19 22 29 35 40 40 37 41 43 33 38 26 28 29 36 46 47 33 36 41 39 53 63 65 65
33 3 11 5 25 17 11 16 14 10 13 9 4 10 18 8 17 13 19 23 21 23 30 29 34 47 39 40 44 41 43 27 43 31 34 46 49 43 40 25 26 56 68 63 66
23 4 5 20 17 5 19 19 13 20 12 12 20 18 19 12 15 3 14 24 15 17 25 21 37 12 45 44 47 48 45 45 46 42 35 36 52 40 55 43 32 35 56 65 68
11 8 7 23 7 5 17 5 8 17 16 11 22 4 13 4 6 10 4 12 4 8 18 16 25 27 19 24 30 42 31 43 34 46 47 37 37 37 46 43 46 28 36 52 68
7 14 11 16 4 20 11 13 10 14 15 11 10 12 13 14 14 20 16 13 7 14 17 26 15 35 20 16 36 35 39 32 34 42 36 30 25 26 47 39 33 45 43 45 48
6 7 26 10 16 8 10 10 2 8 5 4 7 11 10 12 16 24 20 6 13 18 26 19 18 29 41 32 39 48 39 53 30 42 39 33 27 16 29 37 45 46 59 53 53
8 15 26 10 3 11 13 15 12 7 12 7 5 7 9 16 9 13 14 18 14 20 14 22 21 27 34 29 35 33 38 38 49 45 42 35 31 20 10 4 23 50 46 34 24
11 2 16 28 17 12 10 10 8 10 7 8 9 9 11 14 10 12 11 10 14 26 19 19 28 37 29 13 23 23 48 44 37 33 43 39 38 31 25 15 21 23 22 20 15
16 11 10 13 17 16 13 2 6 9 7 5 8 10 12 10 9 11 13 20 14 31 23 25 35 38 37 39 32 29 30 25 33 36 37 37 37 31 20 24 29 13 8 11 9
9 6 15 14 5 8 7 14 12 10 4 11 3 3 12 11 18 27 27 24 21 8 20 29 24 35 37 39 32 37 35 35 37 41 44 45 38 37 37 20 5 4 7 10 12
17 13 9 3 6 6 16 14 13 8 7 5 5 18 14 15 19 32 36 36 33 25 23 12 16 23 34 35 41 44 45 39 41 44 41 42 36 33 21 11 28 24 9 13 19
Wind_Direction_500mb
6 3 359 354 348 346 344 340 330 321 315 316 322 324 324 319 290 275 244 223 213 199 177 185 186 192 199 209 220 228 254 285 230 206 213 147 107 170 193 142 145 166 158 158 158
2 359 356 350 345 343 341 337 328 320 313 311 318 322 323 322 294 256 246 221 205 184 179 181 185 189 201 214 214 241 250 65 250 119 280 136 141 226 170 149 155 136 128 150 158
359 356 353 347 343 339 336 335 332 326 316 310 317 322 327 332 297 197 219 222 194 184 180 188 188 193 207 215 214 223 256 176 268 56 82 238 151 183 165 180 159 143 145 157 161
356 354 350 344 341 337 334 331 328 328 320 312 314 319 321 311 318 154 243 198 192 175 191 194 196 199 211 211 221 249 231 261 320 83 72 309 199 174 105 284 141 147 156 160 164
352 350 346 341 339 335 332 328 327 323 313 310 309 321 332 238 236 328 243 213 189 179 194 197 200 205 219 227 224 226 260 232 230 229 126 203 231 95 136 115 126 146 156 164 167
348 347 344 339 337 333 330 329 329 324 316 308 298 311 310 254 301 339 302 213 195 187 196 199 207 209 237 247 233 233 236 258 239 232 196 210 229 183 127 136 138 153 161 168 172
342 342 342 339 336 335 335 333 331 327 334 305 313 297 253 329 298 300 160 169 186 186 197 200 208 215 231 253 227 249 255 232 243 228 219 221 218 193 139 157 152 160 167 172 177
340 340 341 341 339 340 342 338 331 337 354 8 349 115 349 359 217 60 172 176 184 189 203 202 209 238 231 238 250 227 238 246 209 220 228 209 218 177 158 162 161 164 172 177 180
339 338 340 340 345 345 346 342 334 21 37 36 43 274 104 334 175 205 161 179 177 189 206 207 224 229 226 241 234 204 233 218 240 198 215 208 222 34 166 171 164 167 173 179 184
336 335 339 338 349 356 356 6 16 4 42 314 286 243 101 330 271 179 186 175 175 179 198 194 215 225 222 211 228 213 219 236 217 180 211 203 180 136 224 176 166 171 174 182 187
334 333 335 335 357 19 15 332 304 215 232 332 16 347 57 67 121 183 182 168 178 193 195 203 218 213 211 224 239 267 238 229 200 206 209 231 199 138 191 174 167 174 179 185 189
335 332 334 327 329 23 22 28 11 328 268 186 177 149 55 121 170 151 175 191 199 208 209 189 223 228 230 227 234 253 252 264 238 216 209 220 225 177 178 177 176 178 181 186 187
336 334 333 327 336 10 33 16 321 296 251 171 201 15 194 276 7 81 209 225 209 215 207 226 210 222 239 232 233 233 241 244 248 222 225 242 235 181 109 272 186 183 181 186 189
335 335 333 343 42 332 41 347 324 223 255 141 199 164 216 233 200 208 250 265 232 234 228 228 235 211 221 234 225 235 224 254 261 244 211 229 244 224 162 210 191 189 178 188 189
337 336 335 304 268 337 316 332 319 210 249 114 117 46 236 248 55 153 238 231 261 225 237 231 227 241 227 236 224 242 248 217 243 255 257 226 226 254 193 184 186 194 194 190 190
339 342 29 8 343 304 324 320 261 234 173 123 118 197 222 203 197 287 224 225 283 280 272 262 236 231 236 229 237 240 241 248 227 235 238 238 241 221 213 196 192 190 197 197 195
341 351 37 98 302 303 305 275 234 253 166 126 123 253 287 147 206 263 242 214 237 223 230 230 241 252 226 224 223 220 221 218 217 224 233 222 236 248 208 193 210 191 198 196 199
342 18 2 334 319 294 257 236 256 39 50 53 254 269 264 24 211 267 246 247 206 267 290 273 215 218 212 233 223 214 214 219 211 216 226 229 218 229 250 194 172 211 195 197 200
341 331 22 318 311 268 230 232 5 19 8 340 280 245 214 176 284 233 240 289 23 352 294 286 268 9 213 214 243 209 220 239 252 249 239 212 217 234 224 236 157 274 193 186 195
343 235 334 340 310 237 244 359 66 21 332 296 283 83 298 155 279 185 256 82 251 286 293 284 283 281 202 244 259 258 242 222 242 247 252 233 222 206 220 219 217 205 228 194 192
52 230 343 340 271 242 288 59 93 50 335 322 344 306 297 315 311 297 287 107 205 304 293 294 278 263 241 215 238 230 249 255 248 229 244 246 227 237 199 204 223 207 214 210 215
298 269 350 349 242 343 51 16 323 22 28 27 289 317 292 322 280 278 273 345 69 325 306 312 281 248 248 229 238 244 249 233 239 227 234 252 238 8 191 186 202 227 215 217 216
8 41 6 310 292 94 125 97 48 28 24 9 13 346 7 306 298 262 293 340 349 296 315 329 236 248 244 261 265 252 246 261 233 252 229 223 234 111 110 284 191 199 226 221 240
316 199 65 52 42 86 114 39 106 55 67 11 343 302 306 270 222 277 274 332 324 286 10 309 274 279 272 297 343 279 232 244 259 242 238 235 225 152 158 171 85 62 39 28 10
8 60 357 21 51 67 57 43 66 49 25 15 51 1 10 300 304 267 270 292 262 271 248 250 265 268 278 286 278 280 293 287 255 261 271 260 234 239 304 187 97 87 32 357 341
29 68 72 80 20 97 165 68 37 9 341 41 68 323 301 286 297 312 304 284 281 266 275 275 257 284 270 267 263 261 246 249 260 262 271 274 276 288 2 17 354 178 93 341 326
67 71 66 13 50 22 38 36 21 326 29 7 319 295 296 348 304 291 289 285 269 262 263 267 280 283 265 259 250 244 242 239 244 246 248 251 252 271 253 289 356 34 15 331 316
Wind_Speed_850mb
40 41 40 40 39 37 35 32 28 25 21 23 28 28 30 29 22 20 18 20 34 22 38 28 36 38 35 35 31 21 19 14 10 16 16 27 10 6 21 24 11 13 20 53 72
43 44 43 42 41 40 37 35 31 27 23 20 28 31 28 28 19 27 27 30 30 31 40 46 48 43 42 41 35 33 23 1 13 26 25 32 31 22 18 23 18 18 33 65 76
44 46 45 44 44 42 39 36 31 26 23 22 25 26 21 21 13 12 30 34 31 41 38 41 38 41 42 34 42 37 29 21 55 19 15 11 37 40 19 27 35 38 60 70 77
44 47 48 45 45 44 42 36 30 27 26 23 23 17 18 7 3 4 10 17 31 47 39 44 43 45 38 35 38 35 28 32 29 5 10 16 12 24 23 13 32 48 58 75 76
45 47 48 47 45 44 40 35 32 30 29 22 15 14 11 12 8 10 11 18 34 52 47 51 47 45 35 34 33 37 35 23 26 10 11 12 35 1 31 24 36 52 59 71 70
46 48 49 49 45 43 36 34 30 27 23 19 10 11 6 22 4 11 5 18 34 53 48 50 41 42 29 35 30 23 40 31 23 22 17 22 26 15 34 26 39 52 62 68 68
48 48 49 50 45 40 32 31 29 22 13 8 13 11 10 9 7 6 4 14 29 47 46 45 35 38 23 30 30 38 21 33 36 26 17 24 25 31 37 33 43 48 57 65 64
48 48 48 47 41 35 33 31 22 11 14 7 5 5 4 6 3 3 11 18 25 36 37 37 35 32 40 16 11 32 37 33 40 40 38 32 36 33 42 40 44 48 56 62 63
49 47 45 43 32 32 34 30 16 4 7 11 14 5 11 7 1 6 11 17 28 30 32 31 33 35 41 27 25 29 32 43 37 45 36 35 19 24 44 39 43 49 55 61 62
50 47 42 36 27 27 27 21 13 9 10 8 4 13 6 7 2 9 9 17 32 26 31 30 27 32 35 29 30 36 38 37 40 37 42 37 19 41 76 43 45 48 53 60 65
48 43 38 28 21 26 28 19 6 5 16 8 10 7 6 5 8 7 14 26 33 29 30 42 30 39 46 41 42 30 34 41 37 32 34 44 32 34 37 44 46 49 52 58 66
47 42 33 23 12 19 24 12 9 9 10 6 1 3 2 1 10 6 20 25 27 32 36 28 42 41 38 35 38 40 28 32 39 35 32 39 34 41 34 38 47 48 50 54 61
45 40 30 18 7 12 8 14 13 8 16 20 9 2 2 7 3 9 18 26 22 36 41 43 21 40 41 37 33 36 37 30 32 30 36 33 41 38 16 35 44 45 49 53 62
44 38 28 8 2 7 3 21 14 10 12 25 21 10 10 8 13 2 8 20 21 34 40 41 42 16 44 40 35 36 35 36 32 34 32 39 32 44 54 54 38 41 55 56 60
41 37 21 4 5 6 13 21 4 9 11 5 13 5 6 21 5 17 7 16 29 26 27 41 41 43 33 40 37 36 32 35 35 31 32 38 35 33 48 40 43 45 53 61 62
39 29 8 12 6 8 17 16 3 15 3 14 5 1 17 11 9 2 12 13 12 23 31 36 42 40 51 33 30 35 34 32 31 31 34 46 40 39 33 44 43 53 59 60 64
40 15 9 6 9 22 17 9 13 15 8 13 6 6 9 3 13 11 15 23 19 22 29 35 40 40 37 41 43 33 38 26 28 29 36 46 47 33 36 41 39 53 63 65 65
33 3 11 5 25 17 11 16 14 10 13 9 4 10 18 8 17 13 19 23 21 23 30 29 34 47 39 40 44 41 43 27 43 31 34 46 49 43 40 25 26 56 68 63 66
23 4 5 20 17 5 19 19 13 20 12 12 20 18 19 12 15 3 14 24 15 17 25 21 37 12 45 44 47 48 45 45 46 42 35 36 52 40 55 43 32 35 56 65 68
11 8 7 23 7 5 17 5 8 17 16 11 22 4 13 4 6 10 4 12 4 8 18 16 25 27 19 24 30 42 31 43 34 46 47 37 37 37 46 43 46 28 36 52 68
7 14 11 16 4 20 11 13 10 14 15 11 10 12 13 14 14 20 16 13 7 14 17 26 15 35 20 16 36 35 39 32 34 42 36 30 25 26 47 39 33 45 43 45 48
6 7 26 10 16 8 10 10 2 8 5 4 7 11 10 12 16 24 20 6 13 18 26 19 18 29 41 32 39 48 39 53 30 42 39 33 27 16 29 37 45 46 59 53 53
8 15 26 10 3 11 13 15 12 7 12 7 5 7 9 16 9 13 14 18 14 20 14 22 21 27 34 29 35 33 38 38 49 45 42 35 31 20 10 4 23 50 46 34 24
11 2 16 28 17 12 10 10 8 10 7 8 9 9 11 14 10 12 11 10 14 26 19 19 28 37 29 13 23 23 48 44 37 33 43 39 38 31 25 15 21 23 22 20 15
16 11 10 13 17 16 13 2 6 9 7 5 8 10 12 10 9 11 13 20 14 31 23 25 35 38 37 39 32 29 30 25 33 36 37 37 37 31 20 24 29 13 8 11 9
9 6 15 14 5 8 7 14 12 10 4 11 3 3 12 11 18 27 27 24 21 8 20 29 24 35 37 39 32 37 35 35 37 41 44 45 38 37 37 20 5 4 7 10 12
17 13 9 3 6 6 16 14 13 8 7 5 5 18 14 15 19 32 36 36 33 25 23 12 16 23 34 35 41 44 45 39 41 44 41 42 36 33 21 11 28 24 9 13 19
Wind_Direction_850mb
6 3 359 354 348 346 344 340 330 321 315 316 322 324 324 319 290 275 244 223 213 199 177 185 186 192 199 209 220 228 254 285 230 206 213 147 107 170 193 142 145 166 158 158 158
2 359 356 350 345 343 341 337 328 320 313 311 318 322 323 322 294 256 246 221 205 184 179 181 185 189 201 214 214 241 250 65 250 119 280 136 141 226 170 149 155 136 128 150 158
359 356 353 347 343 339 336 335 332 326 316 310 317 322 327 332 297 197 219 222 194 184 180 188 188 193 207 215 214 223 256 176 268 56 82 238 151 183 165 180 159 143 145 157 161
356 354 350 344 341 337 334 331 328 328 320 312 314 319 321 311 318 154 243 198 192 175 191 194 196 199 211 211 221 249 231 261 320 83 72 309 199 174 105 284 141 147 156 160 164
352 350 346 341 339 335 332 328 327 323 313 310 309 321 332 238 236 328 243 213 189 179 194 197 200 205 219 227 224 226 260 232 230 229 126 203 231 95 136 115 126 146 156 164 167
348 347 344 339 337 333 330 329 329 324 316 308 298 311 310 254 301 339 302 213 195 187 196 199 207 209 237 247 233 233 236 258 239 232 196 210 229 183 127 136 138 153 161 168 172
342 342 342 339 336 335 335 333 331 327 334 305 313 297 253 329 298 300 160 169 186 186 197 200 208 215 231 253 227 249 255 232 243 228 219 221 218 193 139 157 152 160 167 172 177
340 340 341 341 339 340 342 338 331 337 354 8 349 115 349 359 217 60 172 176 184 189 203 202 209 238 231 238 250 227 238 246 209 220 228 209 218 177 158 162 161 164 172 177 180
339 338 340 340 345 345 346 342 334 21 37 36 43 274 104 334 175 205 161 179 177 189 206 207 224 229 226 241 234 204 233 218 240 198 215 208 222 34 166 171 164 167 173 179 184
336 335 339 338 349 356 356 6 16 4 42 314 286 243 101 330 271 179 186 175 175 179 198 194 215 225 222 211 228 213 219 236 217 180 211 203 180 136 224 176 166 171 174 182 187
334 333 335 335 357 19 15 332 304 215 232 332 16 347 57 67 121 183 182 168 178 193 195 203 218 213 211 224 239 267 238 229 200 206 209 231 199 138 191 174 167 174 179 185 189
335 332 334 327 329 23 22 28 11 328 268 186 177 149 55 121 170 151 175 191 199 208 209 189 223 228 230 227 234 253 252 264 238 216 209 220 225 177 178 177 176 178 181 186 187
336 334 333 327 336 10 33 16 321 296 251 171 201 15 194 276 7 81 209 225 209 215 207 226 210 222 239 232 233 233 241 244 248 222 225 242 235 181 109 272 186 183 181 186 189
335 335 333 343 42 332 41 347 324 223 255 141 199 164 216 233 200 208 250 265 232 234 228 228 235 211 221 234 225 235 224 254 261 244 211 229 244 224 162 210 191 189 178 188 189
337 336 335 304 268 337 316 332 319 210 249 114 117 46 236 248 55 153 238 231 261 225 237 231 227 241 227 236 224 242 248 217 243 255 257 226 226 254 193 184 186 194 194 190 190
339 342 29 8 343 304 324 320 261 234 173 123 118 197 222 203 197 287 224 225 283 280 272 262 236 231 236 229 237 240 241 248 227 235 238 238 241 221 213 196 192 190 197 197 195
341 351 37 98 302 303 305 275 234 253 166 126 123 253 287 147 206 263 242 214 237 223 230 230 241 252 226 224 223 220 221 218 217 224 233 222 236 248 208 193 210 191 198 196 199
342 18 2 334 319 294 257 236 256 39 50 53 254 269 264 24 211 267 246 247 206 267 290 273 215 218 212 233 223 214 214 219 211 216 226 229 218 229 250 194 172 211 195 197 200
341 331 22 318 311 268 230 232 5 19 8 340 280 245 214 176 284 233 240 289 23 352 294 286 268 9 213 214 243 209 220 239 252 249 239 212 217 234 224 236 157 274 193 186 195
343 235 334 340 310 237 244 359 66 21 332 296 283 83 298 155 279 185 256 82 251 286 293 284 283 281 202 244 259 258 242 222 242 247 252 233 222 206 220 219 217 205 228 194 192
52 230 343 340 271 242 288 59 93 50 335 322 344 306 297 315 311 297 287 107 205 304 293 294 278 263 241 215 238 230 249 255 248 229 244 246 227 237 199 204 223 207 214 210 215
298 269 350 349 242 343 51 16 323 22 28 27 289 317 292 322 280 278 273 345 69 325 306 312 281 248 248 229 238 244 249 233 239 227 234 252 238 8 191 186 202 227 215 217 216
8 41 6 310 292 94 125 97 48 28 24 9 13 346 7 306 298 262 293 340 349 296 315 329 236 248 244 261 265 252 246 261 233 252 229 223 234 111 110 284 191 199 226 221 240
316 199 65 52 42 86 114 39 106 55 67 11 343 302 306 270 222 277 274 332 324 286 10 309 274 279 272 297 343 279 232 244 259 242 238 235 225 152 158 171 85 62 39 28 10
8 60 357 21 51 67 57 43 66 49 25 15 51 1 10 300 304 267 270 292 262 271 248 250 265 268 278 286 278 280 293 287 255 261 271 260 234 239 304 187 97 87 32 357 341
29 68 72 80 20 97 165 68 37 9 341 41 68 323 301 286 297 312 304 284 281 266 275 275 257 284 270 267 263 261 246 249 260 262 271 274 276 288 2 17 354 178 93 341 326
67 71 66 13 50 22 38 36 21 326 29 7 319 295 296 348 304 291 289 285 269 262 263 267 280 283 265 259 250 244 242 239 244 246 248 251 252 271 253 289 356 34 15 331 316